Weather reports worldwide

Advertisment
Ciudad Victoria, Mexico (76491): temperature & dewpoint: 14.06.2018 04:00:00 - 20.06.2018 04:00:00 (CDT)Ciudad Victoria, Mexico (76491): wind speed: 14.06.2018 04:00:00 - 20.06.2018 04:00:00 (CDT)Ciudad Victoria, Mexico (76491): wind direction: 14.06.2018 04:00:00 - 20.06.2018 04:00:00 (CDT)Ciudad Victoria, Mexico (76491): reduced air pressure: 14.06.2018 04:00:00 - 20.06.2018 04:00:00 (CDT)Ciudad Victoria, Mexico (76491): visibility: 14.06.2018 04:00:00 - 20.06.2018 04:00:00 (CDT)
Date & Time tt [°C] td [°C] ff [km/h] ff [kn] dd ppp [hPa] vv [km]
20.06.2018 04:00:00 25,2 25,1 0 0 N 1008,4 6
20.06.2018 03:00:00 - - - - - - -
20.06.2018 02:00:00 - - - - - - -
20.06.2018 01:00:00 25,8 25,4 0 0 N 1009,7 6
20.06.2018 00:00:00 - - - - - - -
19.06.2018 23:00:00 - - - - - - -
19.06.2018 22:00:00 27,6 25,9 0 0 N 1009,7 6
19.06.2018 21:00:00 - - - - - - -
19.06.2018 20:00:00 - - - - - - -
19.06.2018 19:00:00 31,2 23,5 11 6 E 1008,4 10
19.06.2018 18:00:00 - - - - - - -
19.06.2018 17:00:00 - - - - - - -
19.06.2018 16:00:00 33,0 23,0 4 2 ENE 1008,5 10
19.06.2018 15:00:00 - - - - - - -
19.06.2018 14:00:00 - - - - - - -
19.06.2018 13:00:00 28,2 26,1 4 2 N 1011,6 10
19.06.2018 12:00:00 - - - - - - -
19.06.2018 11:00:00 - - - - - - -
19.06.2018 10:00:00 25,6 25,3 0 0 N 1011,5 10
19.06.2018 09:00:00 - - - - - - -
19.06.2018 08:00:00 - - - - - - -
19.06.2018 07:00:00 23,0 22,9 0 0 N 1010,6 6
19.06.2018 06:00:00 - - - - - - -
19.06.2018 05:00:00 - - - - - - -
19.06.2018 04:00:00 24,0 23,9 0 0 N 1010,0 6
19.06.2018 03:00:00 - - - - - - -
19.06.2018 02:00:00 - - - - - - -
19.06.2018 01:00:00 25,0 24,9 0 0 N 1012,6 6
19.06.2018 00:00:00 - - - - - - -
18.06.2018 23:00:00 - - - - - - -
18.06.2018 22:00:00 25,0 24,9 0 0 N 1011,7 10
18.06.2018 21:00:00 - - - - - - -
18.06.2018 20:00:00 - - - - - - -
18.06.2018 19:00:00 26,4 26,1 4 2 WSW 1010,9 10
18.06.2018 18:00:00 - - - - - - -
18.06.2018 17:00:00 - - - - - - -
18.06.2018 16:00:00 34,2 24,8 4 2 N 1009,7 10
18.06.2018 15:00:00 - - - - - - -
18.06.2018 14:00:00 - - - - - - -
18.06.2018 13:00:00 30,8 26,5 0 0 N 1011,9 10
18.06.2018 12:00:00 - - - - - - -
18.06.2018 11:00:00 - - - - - - -
18.06.2018 10:00:00 26,6 24,4 0 0 N 1012,6 10
18.06.2018 09:00:00 - - - - - - -
18.06.2018 08:00:00 - - - - - - -
18.06.2018 07:00:00 - - - - - - -
18.06.2018 06:00:00 - - - - - - -
18.06.2018 05:00:00 - - - - - - -
18.06.2018 04:00:00 - - - - - - -
18.06.2018 03:00:00 - - - - - - -
18.06.2018 02:00:00 - - - - - - -
18.06.2018 01:00:00 - - - - - - -
18.06.2018 00:00:00 - - - - - - -
17.06.2018 23:00:00 - - - - - - -
17.06.2018 22:00:00 - - - - - - -
17.06.2018 21:00:00 - - - - - - -
17.06.2018 20:00:00 - - - - - - -
17.06.2018 19:00:00 27,2 26,1 7 4 WSW 1009,1 10
17.06.2018 18:00:00 - - - - - - -
17.06.2018 17:00:00 - - - - - - -
17.06.2018 16:00:00 25,5 22,0 4 2 E 1009,1 10
17.06.2018 15:00:00 - - - - - - -
17.06.2018 14:00:00 - - - - - - -
17.06.2018 13:00:00 31,2 24,1 4 2 N 1011,5 10
17.06.2018 12:00:00 - - - - - - -
17.06.2018 11:00:00 - - - - - - -
17.06.2018 10:00:00 26,0 25,3 4 2 N 1012,0 10
17.06.2018 09:00:00 - - - - - - -
17.06.2018 08:00:00 - - - - - - -
17.06.2018 07:00:00 - - - - - - -
17.06.2018 06:00:00 - - - - - - -
17.06.2018 05:00:00 - - - - - - -
17.06.2018 04:00:00 - - - - - - -
17.06.2018 03:00:00 - - - - - - -
17.06.2018 02:00:00 - - - - - - -
17.06.2018 01:00:00 - - - - - - -
17.06.2018 00:00:00 - - - - - - -
16.06.2018 23:00:00 - - - - - - -
16.06.2018 22:00:00 - - - - - - -
16.06.2018 21:00:00 - - - - - - -
16.06.2018 20:00:00 - - - - - - -
16.06.2018 19:00:00 26,0 25,9 11 6 WSW 1008,0 10
16.06.2018 18:00:00 - - - - - - -
16.06.2018 17:00:00 - - - - - - -
16.06.2018 16:00:00 36,2 21,4 4 2 N 1008,0 10
16.06.2018 15:00:00 - - - - - - -
16.06.2018 14:00:00 - - - - - - -
16.06.2018 13:00:00 33,8 22,5 4 2 N 1010,3 10
16.06.2018 12:00:00 - - - - - - -
16.06.2018 11:00:00 - - - - - - -
16.06.2018 10:00:00 27,4 24,4 4 2 N 1011,5 10
16.06.2018 09:00:00 - - - - - - -
16.06.2018 08:00:00 - - - - - - -
16.06.2018 07:00:00 23,2 23,1 0 0 N 1011,0 6
16.06.2018 06:00:00 - - - - - - -
16.06.2018 05:00:00 - - - - - - -
16.06.2018 04:00:00 25,0 24,9 0 0 N 1010,6 6
16.06.2018 03:00:00 - - - - - - -
16.06.2018 02:00:00 - - - - - - -
16.06.2018 01:00:00 26,6 25,1 0 0 N 1012,3 6
16.06.2018 00:00:00 - - - - - - -
15.06.2018 23:00:00 - - - - - - -
15.06.2018 22:00:00 27,4 24,4 4 2 S 1011,4 6
15.06.2018 21:00:00 - - - - - - -
15.06.2018 20:00:00 - - - - - - -
15.06.2018 19:00:00 31,0 22,8 4 2 E 1008,9 10
15.06.2018 18:00:00 - - - - - - -
15.06.2018 17:00:00 - - - - - - -
15.06.2018 16:00:00 34,4 19,8 4 2 N 1009,6 10
15.06.2018 15:00:00 - - - - - - -
15.06.2018 14:00:00 - - - - - - -
15.06.2018 13:00:00 31,2 23,5 4 2 ESE 1012,4 10
15.06.2018 12:00:00 - - - - - - -
15.06.2018 11:00:00 - - - - - - -
15.06.2018 10:00:00 26,0 24,7 0 0 N 1014,2 10
15.06.2018 09:00:00 - - - - - - -
15.06.2018 08:00:00 - - - - - - -
15.06.2018 07:00:00 22,4 22,3 0 0 N 1013,3 6
15.06.2018 06:00:00 - - - - - - -
15.06.2018 05:00:00 - - - - - - -
15.06.2018 04:00:00 23,4 23,3 0 0 N 1013,8 6
15.06.2018 03:00:00 - - - - - - -
15.06.2018 02:00:00 - - - - - - -
15.06.2018 01:00:00 24,0 23,9 4 2 S 1015,6 6
15.06.2018 00:00:00 - - - - - - -
14.06.2018 23:00:00 - - - - - - -
14.06.2018 22:00:00 24,6 24,5 14 8 S 1013,7 6
14.06.2018 21:00:00 - - - - - - -
14.06.2018 20:00:00 - - - - - - -
14.06.2018 19:00:00 - - - - - - -
14.06.2018 18:00:00 - - - - - - -
14.06.2018 17:00:00 - - - - - - -
14.06.2018 16:00:00 - - - - - - -
14.06.2018 15:00:00 - - - - - - -
14.06.2018 14:00:00 - - - - - - -
14.06.2018 13:00:00 31,4 21,6 4 2 S 1016,1 10
14.06.2018 12:00:00 - - - - - - -
14.06.2018 11:00:00 - - - - - - -
14.06.2018 10:00:00 23,8 23,7 0 0 N 1018,0 10
14.06.2018 09:00:00 - - - - - - -
14.06.2018 08:00:00 - - - - - - -
14.06.2018 07:00:00 21,8 21,7 0 0 N 1016,3 10
14.06.2018 06:00:00 - - - - - - -
14.06.2018 05:00:00 - - - - - - -
14.06.2018 04:00:00 22,8 22,7 4 2 WSW 1015,6 6

tt = temperature
td = dewpoint
ff = wind speed
dd = wind direction
ppp = reduced air pressure
vv = visibility

Next stations